Date,TemperatureHighF,TemperatureAvgF,TemperatureLowF,DewpointHighF,DewpointAvgF,DewpointLowF,HumidityHigh,HumidityAvg,HumidityLow,PressureMaxIn,PressureMinIn,WindSpeedMaxMPH,WindSpeedAvgMPH,GustSpeedMaxMPH,PrecipitationSumIn
2013-1-1,64.2,56.3,46.4,63.4,54.9,45.9,100,95,88,30.06,29.84,21,3,22,1.23
2013-1-2,46.4,42.2,39.2,45.9,40.1,34.8,100,92,82,30.21,30.05,18,5,18,0.04
2013-1-3,51.9,41.1,35.5,34.9,32.0,27.7,84,71,47,30.35,30.18,18,4,20,0.00
2013-1-4,56.5,43.5,34.0,36.0,30.7,25.5,81,63,31,30.42,30.28,13,3,16,0.00
2013-1-5,53.5,46.0,41.6,43.8,37.8,32.9,95,74,51,30.32,30.17,12,2,12,0.11
2013-1-6,52.2,45.5,37.5,48.3,43.6,35.4,98,93,79,30.25,30.14,19,4,19,0.90
2013-1-7,60.1,46.8,34.7,46.2,39.2,33.5,96,78,44,30.27,30.10,13,1,13,0.01
2013-1-8,62.3,55.7,48.0,62.0,51.9,40.2,99,87,71,30.14,29.99,15,2,15,1.73
2013-1-9,68.4,64.2,60.2,68.1,63.9,59.9,99,99,99,30.11,30.01,14,2,16,1.24
2013-1-10,69.1,65.6,62.4,68.8,65.3,62.1,99,99,96,30.09,29.90,23,3,24,1.65
2013-1-11,70.1,66.2,62.4,69.8,65.9,62.1,100,99,99,30.03,29.92,12,1,12,0.11
2013-1-12,77.0,71.2,68.3,71.6,68.3,63.6,99,91,64,29.97,29.81,22,4,22,0.01
2013-1-13,75.6,61.5,44.9,70.1,58.9,44.4,99,92,74,30.06,29.73,40,7,43,1.25
2013-1-14,45.2,41.1,35.8,44.9,40.7,34.9,99,98,97,30.12,30.01,23,6,24,0.67
2013-1-15,42.3,40.1,36.2,42.0,39.8,35.5,99,99,98,30.04,29.92,16,4,16,0.69
2013-1-16,36.9,35.9,35.0,36.1,35.0,32.9,100,96,91,30.12,29.97,19,5,19,0.11
2013-1-17,53.2,41.4,34.3,38.7,34.7,30.2,97,80,46,30.39,30.11,23,3,23,0.02
2013-1-18,59.2,43.4,33.7,37.2,33.3,24.8,95,73,31,30.48,30.33,12,2,12,0.00
2013-1-19,64.2,45.8,31.0,46.5,39.3,29.7,98,81,51,30.34,30.17,15,0,15,0.01
2013-1-20,67.8,48.6,33.7,48.3,38.6,32.7,99,74,29,30.21,30.07,11,1,11,0.00
2013-1-21,66.9,50.6,35.8,48.6,41.8,34.8,98,75,42,30.17,30.08,14,2,15,0.00
2013-1-22,65.0,49.1,40.5,44.9,39.6,33.8,93,72,43,30.30,30.16,11,1,11,0.00
2013-1-23,71.3,53.8,36.9,52.2,44.2,35.9,98,74,34,30.33,30.21,15,1,15,0.00
2013-1-24,71.8,58.8,43.2,58.7,52.2,41.8,98,80,61,30.26,30.14,14,1,14,0.00
2013-1-25,75.4,61.9,49.2,59.0,54.7,48.1,99,79,50,30.18,30.05,19,2,21,0.00
2013-1-26,74.9,60.0,50.8,64.5,55.9,49.9,99,88,57,30.18,30.09,13,0,13,0.01
2013-1-27,74.6,61.1,48.0,61.6,55.5,47.2,99,84,53,30.19,30.10,15,2,18,0.01
2013-1-28,74.4,64.8,56.2,64.3,61.0,54.6,98,88,68,30.17,30.03,12,1,12,0.00
2013-1-29,79.4,71.5,65.0,68.9,66.1,63.8,98,84,62,30.04,29.67,30,7,31,0.00
2013-1-30,73.7,55.9,37.6,68.2,45.3,30.2,96,70,39,30.13,29.60,29,7,33,0.75
2013-1-31,59.9,46.0,31.6,40.4,31.5,22.2,97,63,24,30.28,30.13,11,1,14,0.01